UAL48 KLAX-KSFO

Flight info

Callsign UAL48
Flight time 0h 56m
Altitude 32000
Route SUMMR2 STOKD SERFR SERFR4
Aircraft B38M/M-SDE1FGHILORVWXY/HB1

Departure

Time 2026-05-04 20:04
Airport Los Angeles International Airport (KLAX)

Arrival

Time 2026-05-04 21:00
Airport San Francisco International Airport (KSFO)
Time Latitude Longitude Altitude Speed Heading
2026-05-04 19:39 33.94765 -118.40061 95 ft 0 kts 242°
2026-05-04 19:55 33.94775 -118.40039 94 ft 2 kts 242°
2026-05-04 19:55 33.94781 -118.40017 94 ft 4 kts 307°
2026-05-04 19:55 33.94762 -118.40008 93 ft 4 kts
2026-05-04 19:56 33.94743 -118.40010 95 ft 0 kts
2026-05-04 19:59 33.94749 -118.40010 96 ft 2 kts
2026-05-04 20:00 33.94765 -118.40008 97 ft 3 kts
2026-05-04 20:00 33.94792 -118.40005 94 ft 5 kts
2026-05-04 20:00 33.94826 -118.40012 94 ft 5 kts 330°
2026-05-04 20:00 33.94844 -118.40046 95 ft 5 kts 291°
2026-05-04 20:01 33.94861 -118.40073 95 ft 3 kts 327°
2026-05-04 20:01 33.94882 -118.40080 93 ft 3 kts 351°
2026-05-04 20:01 33.94908 -118.40074 94 ft 4 kts 19°
2026-05-04 20:01 33.94937 -118.40064 97 ft 4 kts 10°
2026-05-04 20:02 33.94967 -118.40065 96 ft 4 kts 357°
2026-05-04 20:02 33.94999 -118.40070 96 ft 5 kts 346°
2026-05-04 20:02 33.95019 -118.40090 97 ft 3 kts 300°
2026-05-04 20:02 33.95022 -118.40099 98 ft 0 kts 288°
2026-05-04 20:03 33.95023 -118.40111 99 ft 2 kts 274°
2026-05-04 20:03 33.95022 -118.40130 99 ft 2 kts 266°
2026-05-04 20:03 33.95012 -118.40232 100 ft 40 kts 262°
2026-05-04 20:03 33.94931 -118.40843 116 ft 102 kts 260°
2026-05-04 20:04 33.94864 -118.41771 538 ft 114 kts 267°
2026-05-04 20:04 33.94770 -118.42745 865 ft 130 kts 261°
2026-05-04 20:04 33.94643 -118.43920 1165 ft 148 kts 262°
2026-05-04 20:04 33.94510 -118.45168 1724 ft 150 kts 261°
2026-05-04 20:05 33.94375 -118.46451 1925 ft 159 kts 262°
2026-05-04 20:05 33.94338 -118.47813 2165 ft 167 kts 266°
2026-05-04 20:05 33.94286 -118.49250 2346 ft 176 kts 267°
2026-05-04 20:05 33.94231 -118.50757 2498 ft 184 kts 264°
2026-05-04 20:06 33.94094 -118.52312 2592 ft 189 kts 264°
2026-05-04 20:06 33.93983 -118.53903 2620 ft 193 kts 264°
2026-05-04 20:06 33.93862 -118.55530 2674 ft 197 kts 264°
2026-05-04 20:06 33.93733 -118.57178 2779 ft 198 kts 263°
2026-05-04 20:07 33.93602 -118.58841 2909 ft 202 kts 264°
2026-05-04 20:07 33.93470 -118.60533 2983 ft 204 kts 264°
2026-05-04 20:07 33.93336 -118.62235 2985 ft 205 kts 265°
2026-05-04 20:07 33.93202 -118.63948 2972 ft 206 kts 264°
2026-05-04 20:08 33.93066 -118.65679 2967 ft 208 kts 264°
2026-05-04 20:08 33.92933 -118.67414 2974 ft 209 kts 264°
2026-05-04 20:08 33.92798 -118.69155 2959 ft 210 kts 264°
2026-05-04 20:08 33.92655 -118.70989 2924 ft 235 kts 264°
2026-05-04 20:09 33.92499 -118.72998 3247 ft 245 kts 264°
2026-05-04 20:09 33.92338 -118.75066 3711 ft 250 kts 264°
2026-05-04 20:09 33.92174 -118.77166 4223 ft 254 kts 265°
2026-05-04 20:09 33.92008 -118.79288 4883 ft 255 kts 265°
2026-05-04 20:10 33.91840 -118.81431 5454 ft 259 kts 265°
2026-05-04 20:10 33.91704 -118.83607 6013 ft 262 kts 271°
2026-05-04 20:10 33.91776 -118.85719 6577 ft 262 kts 272°
2026-05-04 20:10 33.91839 -118.87871 7268 ft 263 kts 271°
2026-05-04 20:11 33.91891 -118.89877 7922 ft 266 kts 271°
2026-05-04 20:11 33.91951 -118.91849 8459 ft 267 kts 271°
2026-05-04 20:11 33.92019 -118.94086 9054 ft 268 kts 271°
2026-05-04 20:11 33.92085 -118.96334 9641 ft 270 kts 271°
2026-05-04 20:12 33.92151 -118.98604 10178 ft 273 kts 270°
2026-05-04 20:12 33.92266 -119.00921 10528 ft 283 kts 279°
2026-05-04 20:12 33.93000 -119.03180 10782 ft 300 kts 297°
2026-05-04 20:12 33.94114 -119.05362 11137 ft 310 kts 300°
2026-05-04 20:13 33.95294 -119.07572 11579 ft 317 kts 300°
2026-05-04 20:13 33.96473 -119.09834 12060 ft 321 kts 298°
2026-05-04 20:13 33.97651 -119.12140 12591 ft 325 kts 298°
2026-05-04 20:13 33.98847 -119.14472 13145 ft 329 kts 298°
2026-05-04 20:14 34.00063 -119.16824 13705 ft 332 kts 299°
2026-05-04 20:14 34.01512 -119.19015 14231 ft 341 kts 315°
2026-05-04 20:14 34.03414 -119.20758 14769 ft 346 kts 320°
2026-05-04 20:14 34.05398 -119.22433 15298 ft 349 kts 321°
2026-05-04 20:15 34.07397 -119.24117 15836 ft 352 kts 320°
2026-05-04 20:15 34.09392 -119.25839 16363 ft 354 kts 320°
2026-05-04 20:15 34.11399 -119.27581 16897 ft 357 kts 320°
2026-05-04 20:15 34.13427 -119.29325 17405 ft 359 kts 320°
2026-05-04 20:16 34.15444 -119.31055 17927 ft 362 kts 320°
2026-05-04 20:16 34.17498 -119.32824 18438 ft 364 kts 319°
2026-05-04 20:16 34.19567 -119.34611 18864 ft 366 kts 319°
2026-05-04 20:16 34.21644 -119.36405 19306 ft 369 kts 319°
2026-05-04 20:17 34.23741 -119.38213 19738 ft 371 kts 319°
2026-05-04 20:17 34.25848 -119.40032 20177 ft 373 kts 318°
2026-05-04 20:17 34.27281 -119.41271 20467 ft 375 kts 317°
2026-05-04 20:17 34.29406 -119.43110 20898 ft 377 kts 317°
2026-05-04 20:18 34.31547 -119.44962 21330 ft 379 kts 316°
2026-05-04 20:18 34.33668 -119.46799 21751 ft 381 kts 316°
2026-05-04 20:18 34.35831 -119.48672 22178 ft 384 kts 315°
2026-05-04 20:18 34.38017 -119.50568 22604 ft 386 kts 315°
2026-05-04 20:19 34.40222 -119.52484 23058 ft 387 kts 314°
2026-05-04 20:19 34.42197 -119.54577 23484 ft 379 kts 305°
2026-05-04 20:19 34.44077 -119.56895 23855 ft 382 kts 305°
2026-05-04 20:19 34.45923 -119.59167 24183 ft 385 kts 305°
2026-05-04 20:20 34.47811 -119.61482 24537 ft 388 kts 304°
2026-05-04 20:20 34.49709 -119.63819 24734 ft 390 kts 304°
2026-05-04 20:20 34.51645 -119.66201 25104 ft 393 kts 304°
2026-05-04 20:20 34.53566 -119.68565 25447 ft 395 kts 304°
2026-05-04 20:21 34.55474 -119.70914 25853 ft 397 kts 304°
2026-05-04 20:21 34.57417 -119.73316 26211 ft 400 kts 303°
2026-05-04 20:21 34.61341 -119.78159 26799 ft 404 kts 303°
2026-05-04 20:22 34.63315 -119.80605 27056 ft 407 kts 303°
2026-05-04 20:22 34.65305 -119.83065 27406 ft 409 kts 303°
2026-05-04 20:22 34.67306 -119.85539 27715 ft 412 kts 303°
2026-05-04 20:22 34.69315 -119.88025 28076 ft 414 kts 303°
2026-05-04 20:23 34.71336 -119.90536 28440 ft 416 kts 302°
2026-05-04 20:23 34.73366 -119.93062 28686 ft 419 kts 302°
2026-05-04 20:23 34.75413 -119.95599 28966 ft 421 kts 302°
2026-05-04 20:23 34.77472 -119.98147 29283 ft 423 kts 302°
2026-05-04 20:24 34.79529 -120.00711 29591 ft 425 kts 301°
2026-05-04 20:24 34.81582 -120.03263 30006 ft 419 kts 302°
2026-05-04 20:24 34.83611 -120.05783 30393 ft 417 kts 301°
2026-05-04 20:24 34.85636 -120.08308 30756 ft 416 kts 302°
2026-05-04 20:25 34.87650 -120.10831 31174 ft 414 kts 302°
2026-05-04 20:25 34.89657 -120.13331 31689 ft 411 kts 302°
2026-05-04 20:25 34.91653 -120.15825 32036 ft 410 kts 302°
2026-05-04 20:25 34.93656 -120.18338 32049 ft 416 kts 302°
2026-05-04 20:26 34.97699 -120.23389 32051 ft 417 kts 302°
2026-05-04 20:26 35.01744 -120.28464 32057 ft 416 kts 302°
2026-05-04 20:27 35.05792 -120.33544 32064 ft 418 kts 302°
2026-05-04 20:27 35.09912 -120.38573 32070 ft 422 kts 305°
2026-05-04 20:28 35.14250 -120.43407 32071 ft 422 kts 305°
2026-05-04 20:28 35.18566 -120.48252 32067 ft 420 kts 304°
2026-05-04 20:29 35.22883 -120.53096 32069 ft 422 kts 305°
2026-05-04 20:29 35.27214 -120.57963 32069 ft 424 kts 305°
2026-05-04 20:30 35.31554 -120.62847 32068 ft 423 kts 305°
2026-05-04 20:30 35.35882 -120.67725 32069 ft 422 kts 305°
2026-05-04 20:31 35.40200 -120.72603 32085 ft 422 kts 306°
2026-05-04 20:31 35.44506 -120.77466 32060 ft 422 kts 305°
2026-05-04 20:32 35.48855 -120.82299 32085 ft 428 kts 311°
2026-05-04 20:32 35.53642 -120.86715 32082 ft 430 kts 311°
2026-05-04 20:33 35.58406 -120.91152 32071 ft 430 kts 312°
2026-05-04 20:33 35.63187 -120.95588 32080 ft 431 kts 312°
2026-05-04 20:34 35.67955 -121.00024 32074 ft 430 kts 313°
2026-05-04 20:34 35.72688 -121.04438 32078 ft 430 kts 313°
2026-05-04 20:35 35.77491 -121.08920 32076 ft 431 kts 314°
2026-05-04 20:35 35.82225 -121.13349 32060 ft 430 kts 314°
2026-05-04 20:36 35.86991 -121.17810 32060 ft 430 kts 314°
2026-05-04 20:36 35.91760 -121.22285 32070 ft 431 kts 315°
2026-05-04 20:37 35.96529 -121.26765 32057 ft 431 kts 316°
2026-05-04 20:37 36.01302 -121.31253 32049 ft 431 kts 316°
2026-05-04 20:38 36.06088 -121.35767 32042 ft 435 kts 316°
2026-05-04 20:38 36.08597 -121.37884 31675 ft 439 kts 322°
2026-05-04 20:38 36.11198 -121.39888 31074 ft 441 kts 324°
2026-05-04 20:39 36.13808 -121.41882 30485 ft 441 kts 324°
2026-05-04 20:39 36.16405 -121.43911 29836 ft 441 kts 323°
2026-05-04 20:39 36.18980 -121.45944 29279 ft 437 kts 324°
2026-05-04 20:39 36.21565 -121.47966 28738 ft 433 kts 324°
2026-05-04 20:40 36.24080 -121.49921 28206 ft 429 kts 325°
2026-05-04 20:40 36.26594 -121.51886 27687 ft 425 kts 325°
2026-05-04 20:40 36.29080 -121.53840 27202 ft 421 kts 326°
2026-05-04 20:40 36.31546 -121.55775 26679 ft 418 kts 326°
2026-05-04 20:41 36.33997 -121.57695 26174 ft 414 kts 326°
2026-05-04 20:41 36.36420 -121.59596 25678 ft 411 kts 326°
2026-05-04 20:41 36.38826 -121.61487 25211 ft 407 kts 326°
2026-05-04 20:41 36.41207 -121.63361 24761 ft 404 kts 326°
2026-05-04 20:42 36.43568 -121.65224 24300 ft 401 kts 330°
2026-05-04 20:42 36.45914 -121.67071 23844 ft 398 kts 329°
2026-05-04 20:42 36.48242 -121.68902 23335 ft 395 kts 330°
2026-05-04 20:42 36.50559 -121.70721 22799 ft 392 kts 329°
2026-05-04 20:43 36.52851 -121.72534 22278 ft 389 kts 329°
2026-05-04 20:43 36.55125 -121.74339 21769 ft 386 kts 329°
2026-05-04 20:43 36.57384 -121.76121 21193 ft 375 kts 329°
2026-05-04 20:43 36.59584 -121.77859 19342 ft 378 kts 330°
2026-05-04 20:44 36.61790 -121.79602 17805 ft 373 kts 328°
2026-05-04 20:44 36.63951 -121.81321 16369 ft 364 kts 329°
2026-05-04 20:44 36.66051 -121.82991 15273 ft 351 kts 328°
2026-05-04 20:44 36.68015 -121.84548 15077 ft 322 kts 330°
2026-05-04 20:45 36.69908 -121.86045 15024 ft 321 kts 329°
2026-05-04 20:45 36.71787 -121.87537 15016 ft 318 kts 329°
2026-05-04 20:45 36.73648 -121.88992 15027 ft 313 kts 333°
2026-05-04 20:45 36.75654 -121.89899 15037 ft 305 kts 347°
2026-05-04 20:46 36.77717 -121.90466 15041 ft 306 kts 351°
2026-05-04 20:46 36.79848 -121.90994 15055 ft 315 kts 349°
2026-05-04 20:46 36.81961 -121.91573 14387 ft 308 kts 349°
2026-05-04 20:46 36.84074 -121.92185 13209 ft 311 kts 348°
2026-05-04 20:47 36.86171 -121.92784 12126 ft 306 kts 349°
2026-05-04 20:47 36.88240 -121.93356 11065 ft 303 kts 349°
2026-05-04 20:47 36.90268 -121.93916 10294 ft 292 kts 348°
2026-05-04 20:47 36.92183 -121.94455 10018 ft 273 kts 348°
2026-05-04 20:48 36.94051 -121.94978 10027 ft 279 kts 349°
2026-05-04 20:48 36.95935 -121.95634 10016 ft 283 kts 342°
2026-05-04 20:48 36.97854 -121.96387 9446 ft 291 kts 345°
2026-05-04 20:48 36.99788 -121.97091 8692 ft 287 kts 345°
2026-05-04 20:49 37.01637 -121.97803 8130 ft 274 kts 343°
2026-05-04 20:49 37.03403 -121.98507 7998 ft 256 kts 343°
2026-05-04 20:49 37.05139 -121.99187 8010 ft 267 kts 343°
2026-05-04 20:49 37.06916 -121.99877 8027 ft 271 kts 344°
2026-05-04 20:50 37.08720 -122.00582 8011 ft 271 kts 343°
2026-05-04 20:50 37.10500 -122.01279 8016 ft 272 kts 343°
2026-05-04 20:50 37.12308 -122.01986 8008 ft 272 kts 343°
2026-05-04 20:50 37.14117 -122.02692 8007 ft 273 kts 344°
2026-05-04 20:51 37.15927 -122.03400 8009 ft 273 kts 343°
2026-05-04 20:51 37.17737 -122.04110 8008 ft 273 kts 343°
2026-05-04 20:51 37.19555 -122.04823 8006 ft 273 kts 343°
2026-05-04 20:51 37.21370 -122.05532 8015 ft 274 kts 343°
2026-05-04 20:52 37.23190 -122.06245 8000 ft 274 kts 343°
2026-05-04 20:52 37.25004 -122.06958 7999 ft 273 kts 343°
2026-05-04 20:52 37.26817 -122.07672 8007 ft 272 kts 345°
2026-05-04 20:52 37.28622 -122.08377 8002 ft 272 kts 343°
2026-05-04 20:53 37.30435 -122.09090 8002 ft 273 kts 345°
2026-05-04 20:53 37.32247 -122.09806 7914 ft 271 kts 343°
2026-05-04 20:53 37.34056 -122.10518 6894 ft 278 kts 343°
2026-05-04 20:53 37.35928 -122.11256 6224 ft 287 kts 343°
2026-05-04 20:54 37.37835 -122.12009 6003 ft 285 kts 343°
2026-05-04 20:54 37.39690 -122.12744 5929 ft 276 kts 343°
2026-05-04 20:54 37.41509 -122.13466 5711 ft 272 kts 343°
2026-05-04 20:54 37.43295 -122.14174 5138 ft 268 kts 343°
2026-05-04 20:55 37.45081 -122.14879 4395 ft 267 kts 342°
2026-05-04 20:55 37.46805 -122.15557 3891 ft 252 kts 342°
2026-05-04 20:55 37.48433 -122.16192 3368 ft 241 kts 342°
2026-05-04 20:55 37.50001 -122.16798 3011 ft 226 kts 341°
2026-05-04 20:56 37.51468 -122.17357 3009 ft 221 kts 342°
2026-05-04 20:56 37.52954 -122.17921 2999 ft 219 kts 341°
2026-05-04 20:56 37.54429 -122.18478 3025 ft 225 kts 341°
2026-05-04 20:56 37.55754 -122.19431 3009 ft 221 kts 305°
2026-05-04 20:57 37.56445 -122.21121 2986 ft 213 kts 289°
2026-05-04 20:57 37.56655 -122.22881 2615 ft 195 kts 275°
2026-05-04 20:57 37.56821 -122.24510 2266 ft 179 kts 282°
2026-05-04 20:57 37.57213 -122.25922 2017 ft 162 kts 295°
2026-05-04 20:58 37.57687 -122.27073 1989 ft 135 kts 297°
2026-05-04 20:58 37.58131 -122.28115 2012 ft 136 kts 297°
2026-05-04 20:58 37.58564 -122.29178 1871 ft 138 kts 296°
2026-05-04 20:58 37.59001 -122.30262 1370 ft 138 kts 296°
2026-05-04 20:59 37.59429 -122.31282 955 ft 123 kts 297°
2026-05-04 20:59 37.59848 -122.32249 702 ft 129 kts 298°
2026-05-04 20:59 37.60288 -122.33218 406 ft 122 kts 298°
2026-05-04 20:59 37.60716 -122.34128 418 ft 127 kts 292°
2026-05-04 21:00 37.61113 -122.35153 183 ft 128 kts 295°
2026-05-04 21:00 37.61487 -122.36091 21 ft 111 kts 298°
2026-05-04 21:00 37.61796 -122.36769 21 ft 66 kts 299°
2026-05-04 21:00 37.61955 -122.37165 16 ft 42 kts 298°
2026-05-04 21:01 37.62074 -122.37454 17 ft 33 kts 298°
2026-05-04 21:01 37.62162 -122.37683 21 ft 26 kts 292°
2026-05-04 21:01 37.62205 -122.37876 22 ft 20 kts 278°
2026-05-04 21:01 37.62221 -122.38025 26 ft 15 kts 276°
2026-05-04 21:02 37.62228 -122.38109 30 ft 14 kts 274°
2026-05-04 21:02 37.62223 -122.38218 25 ft 10 kts 249°
2026-05-04 21:02 37.62182 -122.38281 26 ft 10 kts 221°
2026-05-04 21:02 37.62120 -122.38323 23 ft 10 kts 198°
2026-05-04 21:03 37.62052 -122.38344 25 ft 11 kts 199°
2026-05-04 21:03 37.61990 -122.38392 23 ft 2 kts 218°
2026-05-04 21:03 37.61989 -122.38393 23 ft 0 kts 218°